Flag for Morocco Weather past 2 weeks in Casablanca, Morocco

Now
73 °F

Passing clouds.


Feels Like: 73 °F
Forecast: 72 / 78 °F
Wind: 2 mph from West

Location: Casablanca Airport

Current Time: Sep 18, 2014 at 1:33:16 AM

Latest Report: Sep 18, 2014 at 1:00 AM


Visibility: N/A

Pressure: 29.83 "Hg

Humidity: 83%

Dew point: 68 °F

Location of CasablancaLocation

Historic Weather in Casablanca — Graph

°F

Casablanca temperature yesterday

Maximum temperature yesterday: 81 °F (at 3:00 PM)
Minimum temperature yesterday: 72 °F (at 7:00 AM)
Average temperature yesterday: 76 °F

Past Weeks' High & Low Weather Summary

 TemperatureHumidityPressure
High82 °F (Sep 16, 12:00 PM)100% (Sep 14, 9:00 AM)30.04 "Hg (Sep 14, 9:00 AM)
Low68 °F (Sep 10, 7:00 AM)54% (Sep 16, 10:00 AM)29.59 "Hg (Sep 15, 5:00 PM)
Average75 °F78%29.95 "Hg
* Reported Midnight between Sep 2 and Sep 3 — Midnight between Sep 17 and Sep 18, Casablanca, Weather by CustomWeather, © 2014

Note: Actual official high and low records may vary slightly from our data, if they occured in-between our weather recording intervals... More about our weather records

Advertising

Casablanca weather history for previous 24 hours

 ConditionsComfort  
Time TempWeatherWind HumidityBarometerVisibility
12:00 AM
Sep 18
73 °FPassing clouds.2 mph83%29.86 "HgN/A
11:00 PM
Sep 17
73 °FPassing clouds.5 mph83%29.86 "HgN/A
10:00 PM73 °FPassing clouds.5 mph83%29.86 "HgN/A
9:00 PM73 °FPassing clouds.7 mph83%29.86 "HgN/A
8:00 PM75 °FPassing clouds.9 mph78%29.83 "HgN/A
7:00 PM75 °FPassing clouds.9 mph78%29.83 "HgN/A
6:00 PM77 °FPassing clouds.9 mph69%29.83 "HgN/A
5:00 PM77 °FPassing clouds.9 mph69%29.83 "HgN/A
4:00 PM79 °FPassing clouds.14 mph65%29.83 "HgN/A
3:00 PM81 °FPassing clouds.12 mph54%29.83 "HgN/A
2:00 PM79 °FScattered clouds.9 mph65%29.83 "HgN/A
1:00 PM79 °FScattered clouds.9 mph65%29.86 "HgN/A
12:00 PM77 °FPartly sunny.12 mph65%29.83 "HgN/A
11:00 AM79 °FPartly sunny.7 mph58%29.83 "HgN/A
10:00 AM77 °FScattered clouds.7 mph65%29.83 "HgN/A
9:00 AM73 °FScattered clouds.5 mph78%29.83 "HgN/A
8:00 AM72 °FPassing clouds.3 mph78%29.83 "HgN/A
7:00 AM72 °FPassing clouds.3 mph83%29.83 "HgN/A
2:00 AM73 °FPassing clouds.3 mph83%29.86 "HgN/A
1:00 AM73 °FPassing clouds.6 mph83%29.86 "HgN/A
Weather by CustomWeather, © 2014

See weather overviewHow to use our weather pages